Weather Roundup
Issued by NWS Springfield, MO

Home | Current Version | Previous Version | Text Only | Print | Product List | Glossary On
Versions: 1 2 3 4 5 6 7 8 9 10 11 12 13 14 15 16 17 18 19 20 21 22 23 24 25 26 27 28 29 30 31 32 33 34 35 36 37 38 39 40 41 42 43 44 45 46 47 48 49 50
000
NZUS99 KSGF 260807
HRRSGF

HOURLY WEATHER
NATIONAL WEATHER SERVICE SPRINGFIELD MO
300 AM CDT SUN OCT 26 2014

......SGF CWA......

CITY           SKY/WX    TMP DP  RH WIND       PRES   REMARKS
SPRINGFIELD    CLEAR     58  56  93 SE6       30.00S FOG
JOPLIN         CLEAR     63  61  93 S8        29.99R
WEST PLAINS    CLEAR     59  56  89 CALM      30.03R
ROLLA          CLEAR     56  53  90 E3        30.01R
OSAGE BEACH    CLEAR     55  52  88 CALM      30.01S
BRANSON        CLEAR     59  59 100 CALM      30.02F

......SURROUNDING SGF CWA......

CITY           SKY/WX    TMP DP  RH WIND       PRES   REMARKS
CHANUTE        CLEAR     62  60  93 SE7       29.96S
PARSONS        CLEAR     65  62  90 S3        29.97S
COFFEYVILLE    CLEAR     62  61  96 S5        29.96R
EMPORIA        CLEAR     62  60  93 S12       29.93F
GROVE OK       CLEAR     59  59 100 CALM      30.00S FOG
ROGERS AR      CLEAR     62  59  90 SE5       30.03S
SILOAM SPRINGS CLEAR     61  55  82 SE3       30.02S
HARRISON AR    CLEAR     60  60 100 CALM      30.02F
NEAR YELLVILLE CLEAR     57  54  88 CALM      30.01S

......KANSAS AND MISSOURI......

CITY           SKY/WX    TMP DP  RH WIND       PRES   REMARKS
KANSAS CTY INT CLEAR     61  49  64 E9        29.98F
DOWNTOWN KC    CLEAR     60  51  72 E7        29.98S
COLUMBIA       CLEAR     58  47  66 E8        30.02S
SEDALIA        CLEAR     60  52  74 E3        30.01S
ST JOSEPH      CLEAR     59  46  62 E8        29.98F
ST LOUIS       CLEAR     59  47  64 CALM      30.03R
SPIRIT OF STL  CLEAR     49  48  97 CALM      30.02R FOG
KIRKSVILLE     CLEAR     52  39  61 NE6       30.03F
WICHITA        CLEAR     62  55  77 S7        29.92F
TOPEKA         CLEAR     62  58  86 E5        29.94F
OLATHE         CLEAR     63  56  78 E7        29.97F

......TENNESSEE......

CITY           SKY/WX    TMP DP  RH WIND       PRES   REMARKS
MEMPHIS        CLEAR     64  62  93 CALM      30.00F
NASHVILLE      CLEAR     58  57  97 CALM      30.02R FOG

......ARKANSAS.......

CITY           SKY/WX    TMP DP  RH WIND       PRES   REMARKS
FAYETTEVILLE   CLEAR     54  54 100 CALM      30.02F FOG
FT SMITH       CLEAR     63  61  93 NE3       30.00S FOG
LITTLE ROCK    CLEAR     62  59  90 CALM      30.01F FOG

......OKLAHOMA.......

CITY           SKY/WX    TMP DP  RH WIND       PRES   REMARKS
TULSA          CLEAR     68  62  81 SE5       29.96R
PONCA CITY     CLEAR     66  56  70 S3        29.94S
MCALESTER      CLEAR     69  61  75 S7        30.00F
OKLAHOMA CITY  CLEAR     66  58  75 S12       29.97F

......IOWA............

CITY           SKY/WX    TMP DP  RH WIND       PRES   REMARKS
DES MOINES     CLEAR     53  35  50 E6        30.03F
QUAD CITIES    CLEAR     39  34  82 CALM      30.04S

......ILLINOIS........

CITY           SKY/WX    TMP DP  RH WIND       PRES   REMARKS
QUINCY         CLEAR     48  38  68 NE9       30.03S
CHICAGO        CLEAR     48  29  47 NW9       30.00R




USA.gov is the U.S. government's official web portal to all federal, state and local government web resources and services.